Location: Grand Rapids
(42.9630°N, 85.6680°W)
Time: 02:08:34
(UTC-04:00)

A-11 Canister half - Pass Details

Date: 07 June 2024
Orbit: 1524 x 1684 km, 47.3° (Epoch: 21 June)

Event Time Altitude Azimuth Distance (km) Brightness Sun altitude
Rises 18:52:36 0° 240° (WSW) 4,675 12.3 24.1°
Reaches altitude 10° 18:55:38 10° 240° (WSW) 3,688 11.9 23.6°
Maximum altitude 19:04:55 84° 154° (SSE) 1,538 9.4 21.9°
Drops below altitude 10° 19:14:19 10° 67° (ENE) 3,730 10.6 20.2°
Sets 19:17:24 0° 67° (ENE) 4,731 11.1 19.7°
